sat.trackr.live / text

‹ back to catalog

SITRO-AIS 6 (CHIRKIN)

NORAD 57192 · 2023-091AC

PAYLOAD ACTIVE UNKNOWN

§ Identity

Operator
Country
CIS
Launch date
2023-06-27
Launch site
VOSTO
Launch vehicle
Mass (kg)
RCS (m²)

Purposes: tech_demo

External: N2YO · Heavens-Above · Gunter

§ Orbital elements

Epoch: 2026-05-25T03:49:10.871040Z

Period
94.40 min
Inclination
97.5081°
Eccentricity
0.0012014
Mean motion
15.25423022 rev/d
Perigee alt
481.3 km
Apogee alt
497.8 km
Semi-major
6,867.7 km
B*
3.6831e-4
RAAN
208.0878°
Arg perigee
179.4081°
Mean anomaly
180.7173°
Rev number
16,077

§ Raw data

SITRO-AIS 6 (CHIRKIN)1 57192U 23091AC  26145.15915360  .00009255  00000+0  36831-3 0  99912 57192  97.5081 208.0878 0012014 179.4081 180.7173 15.25423022160771

JSON: /api/v1/satellites/57192 · /tle

For live sub-satellite position, see the globe view (requires WebGL).

§ Visibility from observer

Set your observer location to see the next 7 days of passes ≥ 10°. The values pass through the URL so the page stays shareable.

No JS? Fill the form by hand. The geolocation button needs JavaScript.

§ Radio — SatNOGS DB

ModeDescriptionDownlinkUplink
GMSK USP Mode U - GMSK USP 2K4 TLM 401.170 MHz

1 transmitter · refreshed weekly from db.satnogs.org